Location: Beaurevoir
(49.9971°N, 3.3085°E)
Time: 16:57:22
(UTC+00:00)

Kosmos-1226 - Visible Passes

Search period start: 07 October 2024 00:00
Search period end: 17 October 2024 00:00
Orbit: 958 x 1007 km, 82.9° (Epoch: 06 October)

Date Brightness Start Highest point End Pass type
(mag) Time Alt. Az. Time Alt. Az. Time Alt. Az.
07 Oct 9.5 03:48:29 10° E 03:49:27 10° ENE 03:50:24 10° ENE visible
07 Oct 8.5 18:05:23 10° NNW 18:10:32 27° W 18:15:41 10° SW visible
08 Oct 8.8 04:12:13 10° ESE 04:16:25 19° E 04:20:39 10° NE visible
08 Oct 9.1 18:34:09 10° NW 18:37:37 15° WNW 18:41:05 10° WSW visible
09 Oct 7.9 04:38:09 10° SSE 04:43:35 33° E 04:49:06 10° NNE visible
10 Oct 6.8 05:04:54 10° S 05:10:56 57° E 05:17:06 10° NNE visible
10 Oct 8.5 17:42:41 10° NNW 17:47:55 27° W 17:53:09 10° SW visible
11 Oct 8.7 03:49:40 10° ESE 03:53:48 19° ENE 03:57:57 10° NE visible
11 Oct 6.1 05:32:17 10° S 05:38:30 84° W 05:44:51 10° N visible
11 Oct 9.1 18:11:24 10° NW 18:15:02 16° WNW 18:18:38 10° WSW visible
12 Oct 7.9 04:15:33 10° SE 04:20:57 32° E 04:26:26 10° NNE visible
13 Oct 6.8 04:42:16 10° SSE 04:48:18 56° E 04:54:27 10° NNE visible
14 Oct 8.7 03:27:09 10° ESE 03:31:11 18° ENE 03:35:15 10° NE visible
14 Oct 6.0 05:09:36 10° S 05:15:51 87° WNW 05:22:13 10° N visible
14 Oct 9.0 17:48:39 10° NW 17:52:25 16° WNW 17:56:11 10° WSW visible
15 Oct 7.8 03:52:57 10° SE 03:58:19 31° E 04:03:45 10° NNE visible
15 Oct 6.2 05:37:32 10° SSW 05:43:35 52° WNW 05:49:46 10° N visible
16 Oct 6.8 04:19:37 10° SSE 04:25:39 54° E 04:31:48 10° NNE visible
